Theta_e
354 355 355 354 354 355 354 355 355 355 355 355 356 355 353 354 354 354 354 354 355 354 353 352 352 353 353 353 353 352 349 347 344 343 348 350 352 359 375 374 373 372 370 370 369 368 367 367 368 368 369 368 368 368 368 367 367 366 366 367 366 366 366 365 365 363 361 363 364 366 368 367 366 367 366 367 367 366 365 365 364 363 362 360 362
353 353 353 353 353 353 353 354 354 354 354 353 354 354 353 352 352 351 352 352 352 352 352 350 350 351 351 352 352 351 347 343 339 340 347 350 350 357 374 377 373 373 372 370 370 369 369 369 369 370 370 370 369 368 368 368 367 367 367 367 366 366 366 366 363 359 359 361 364 368 368 367 367 366 366 366 366 366 365 365 364 362 363 362 361
353 353 352 352 352 352 351 353 352 353 354 353 353 353 353 352 351 350 349 349 350 351 351 349 347 344 345 348 349 346 340 337 337 341 348 348 349 357 368 376 374 374 373 372 371 371 370 371 371 370 370 370 369 368 368 368 367 366 366 366 367 367 367 366 359 356 360 363 364 366 367 367 367 366 365 365 365 365 364 363 363 362 360 361 361
352 353 353 352 351 351 351 350 351 351 352 352 352 353 353 351 350 349 348 347 348 348 347 345 342 338 337 338 341 340 338 335 336 343 348 350 354 356 360 366 375 374 374 373 372 371 371 371 371 370 370 369 368 368 368 368 366 366 367 368 368 368 366 367 365 361 361 365 363 365 367 366 366 366 365 364 366 365 362 361 360 358 359 359 360
350 353 356 352 352 351 350 350 349 349 349 351 351 349 348 348 347 348 345 344 343 342 342 342 339 337 336 336 334 334 335 335 342 343 346 351 352 354 360 366 367 376 374 373 372 371 371 372 371 370 370 369 369 369 368 367 367 367 367 367 368 367 367 367 366 364 365 365 364 365 365 364 364 365 366 366 365 365 364 361 360 361 361 360 358
352 350 352 352 351 350 348 347 348 348 349 350 349 352 346 345 348 350 351 348 345 343 342 339 335 333 334 335 333 329 333 333 336 340 344 349 353 355 359 360 363 365 369 373 372 373 372 372 371 370 370 369 368 367 367 366 365 366 368 368 367 367 367 366 364 364 365 365 364 365 365 365 364 365 364 364 363 364 364 364 360 361 360 358 359
362 355 350 349 349 348 347 347 350 354 355 361 357 357 354 353 354 349 345 343 343 344 344 339 338 337 335 340 333 330 333 333 337 339 343 347 353 356 360 360 360 365 369 366 376 373 371 369 369 369 368 367 365 366 366 367 368 369 369 368 367 366 365 365 366 366 366 365 365 365 365 364 364 363 362 363 363 363 362 363 361 360 359 360 358
363 355 352 349 348 349 350 355 361 361 360 361 359 352 351 351 352 352 344 341 345 342 342 338 336 336 336 336 336 345 335 336 338 339 341 343 346 348 355 360 361 364 368 364 366 370 367 367 368 367 368 368 367 368 369 369 370 369 368 367 367 366 367 368 367 366 366 364 364 364 364 364 363 362 362 363 362 362 361 361 361 360 359 358 357
362 354 351 352 350 350 353 356 362 362 358 356 354 358 352 352 349 354 348 343 343 343 340 338 335 331 330 331 334 336 336 339 339 340 342 340 342 347 353 360 369 373 360 362 362 362 368 371 370 371 371 372 372 372 370 370 369 368 369 369 368 368 367 367 364 364 364 363 363 362 364 363 363 363 362 361 362 361 361 361 360 360 359 358 356
361 357 356 356 355 352 353 357 360 360 357 356 354 356 354 353 352 351 356 348 347 340 337 337 337 335 338 336 335 336 339 342 348 353 341 341 343 346 351 357 361 359 359 360 361 363 367 370 371 372 372 371 370 371 368 368 368 368 368 368 366 366 365 364 363 362 362 362 363 363 362 362 362 362 362 361 361 361 361 360 359 359 358 357 355
363 360 356 353 352 354 354 356 354 353 353 352 354 356 356 353 352 352 354 351 345 341 338 342 338 340 339 340 339 340 342 345 344 340 340 342 347 348 349 351 357 358 358 360 360 361 362 363 363 365 367 370 369 368 368 368 367 367 367 366 365 364 363 363 362 361 360 360 361 361 361 360 360 360 360 360 359 360 360 359 358 358 358 356 355
361 359 357 354 353 353 354 356 356 352 353 353 351 350 349 349 350 357 352 351 349 342 341 341 340 337 347 341 343 343 341 344 342 344 347 346 346 349 351 353 355 357 359 361 362 364 364 365 367 364 365 367 369 368 368 367 366 365 365 365 364 363 361 360 360 359 359 359 360 359 359 359 358 358 358 359 358 359 360 360 358 357 356 352 354
362 358 357 363 354 354 354 353 357 357 356 353 355 353 354 356 357 353 355 344 342 342 344 339 336 332 335 336 338 347 354 342 341 343 344 345 346 348 351 353 354 355 358 361 363 364 363 360 360 361 362 362 365 367 367 366 365 364 364 363 362 361 361 359 357 356 357 358 358 357 358 358 358 358 357 357 358 359 359 359 356 356 356 355 353
364 360 360 354 352 353 353 350 356 354 358 358 356 366 356 353 354 347 349 346 340 344 346 340 334 332 330 333 337 336 346 341 339 343 346 347 347 348 349 351 353 356 358 359 360 361 360 359 361 362 362 361 361 360 361 362 362 363 362 361 360 359 359 357 355 355 357 358 356 356 356 356 357 357 356 356 358 358 358 357 356 355 356 354 352
364 364 357 354 352 353 353 355 358 361 352 349 353 351 352 353 353 351 346 344 346 348 348 335 332 341 339 333 331 327 334 340 344 342 345 345 346 348 350 352 353 354 355 356 356 358 360 360 361 361 360 360 359 360 360 362 361 362 360 360 359 359 358 358 357 356 356 355 355 355 355 355 356 356 356 356 356 357 357 356 356 355 354 353 354
361 365 361 356 355 355 356 358 358 360 350 349 350 351 352 353 350 358 347 340 341 341 359 348 343 337 327 331 331 329 324 327 338 340 341 345 347 348 351 352 351 353 353 354 356 357 358 359 360 360 360 360 359 359 360 359 361 360 359 358 357 357 357 356 355 355 354 353 353 352 353 354 355 355 355 355 355 355 355 355 355 354 353 353 352
358 364 363 356 357 358 356 355 354 357 359 354 353 354 357 352 351 352 347 338 341 346 348 355 345 339 335 332 328 325 326 327 332 334 339 339 344 347 354 351 353 354 353 354 357 357 358 359 359 360 360 359 358 358 358 359 358 360 356 357 357 356 356 355 355 353 352 352 351 352 353 353 353 353 353 354 354 354 354 353 353 354 353 352 352
356 357 361 359 357 358 356 355 355 358 362 359 358 356 354 347 350 351 353 350 342 343 342 348 360 361 343 333 333 326 330 335 330 327 336 339 343 347 347 349 351 351 353 355 356 357 358 359 360 361 361 358 358 358 357 357 360 354 353 354 357 355 354 354 353 352 352 351 351 352 352 351 350 350 351 352 352 352 351 353 352 352 352 351 351
355 355 359 361 358 357 354 354 356 355 362 359 356 353 353 350 358 353 355 358 349 342 345 344 344 347 353 347 351 347 340 334 329 331 326 331 337 342 344 348 351 353 355 355 356 357 358 361 362 361 359 358 358 357 356 356 356 355 355 354 354 354 354 353 353 352 351 351 350 350 349 349 348 348 348 349 349 349 350 351 351 351 350 350 349
354 352 359 360 358 357 355 354 354 355 358 360 354 350 355 358 361 355 358 357 350 346 348 348 341 341 357 347 349 353 344 340 336 333 328 326 329 337 343 347 349 351 354 354 356 357 356 357 360 358 357 357 356 356 355 353 351 351 351 354 353 352 352 352 351 350 349 348 348 348 347 346 346 346 345 345 346 347 347 348 348 349 349 348 348
355 353 359 360 362 358 356 354 353 353 363 358 351 353 352 349 349 348 350 356 355 352 349 345 344 343 341 340 344 344 343 340 339 336 330 327 328 331 334 344 345 347 349 353 356 357 354 356 361 360 359 356 354 354 353 351 350 349 351 353 352 350 350 350 350 349 348 348 347 346 344 344 344 344 343 343 343 344 344 346 346 346 346 346 346
355 355 358 359 360 359 357 356 356 355 364 355 354 353 354 351 352 350 352 351 355 355 349 348 349 346 344 343 341 340 337 337 336 331 330 331 326 329 334 336 334 342 349 351 355 354 355 355 357 358 356 353 353 353 352 350 349 349 350 352 350 349 349 349 348 348 348 347 346 344 343 343 343 343 342 342 342 342 343 343 344 345 345 344 344
353 356 356 358 360 360 358 357 356 361 363 354 352 349 352 350 352 352 353 351 354 353 357 356 353 351 349 345 342 341 338 336 335 336 330 328 329 333 337 342 338 341 348 353 353 351 352 353 353 358 354 353 352 352 350 350 352 350 350 349 349 348 348 347 347 347 347 346 345 344 343 342 342 342 342 341 342 342 341 341 342 342 342 342 342
351 353 354 357 358 358 358 357 357 353 354 353 352 350 352 353 351 349 349 352 354 359 354 351 352 349 347 346 343 342 342 340 340 340 333 332 331 332 338 342 343 344 351 347 351 353 354 353 355 356 354 352 352 353 353 351 350 352 348 349 348 348 347 347 346 345 345 345 344 344 342 342 341 341 341 341 340 340 340 340 340 339 339 340 340
348 351 352 355 356 355 354 352 353 353 352 351 351 353 351 352 351 351 351 351 353 354 352 351 349 347 345 345 345 343 341 339 339 339 339 337 337 335 340 342 337 342 347 347 344 348 351 349 351 355 353 352 352 351 351 349 348 350 349 348 349 347 346 346 345 345 344 343 342 342 341 341 341 341 341 340 340 339 340 339 339 339 338 338 338
348 350 353 355 355 355 355 353 351 351 353 350 350 351 352 350 352 350 349 349 350 353 352 352 350 348 348 347 346 344 341 341 339 339 338 337 336 337 338 340 342 342 345 346 345 345 348 350 351 354 353 351 350 350 349 348 348 351 350 348 349 350 349 348 348 346 344 343 342 342 341 341 341 341 340 340 339 339 338 338 338 338 337 338 338
348 350 354 355 355 354 354 353 352 350 352 352 354 353 356 356 355 350 350 348 349 354 352 353 353 350 348 346 346 345 343 343 340 340 341 341 338 339 339 336 336 339 341 343 342 347 345 348 352 353 351 351 349 349 349 348 349 351 351 348 348 351 349 348 346 345 345 343 342 341 341 339 339 339 339 339 339 338 338 338 337 337 337 337 337
347 351 354 355 354 354 355 353 352 352 351 351 349 350 351 353 352 353 351 355 351 351 350 350 349 348 347 347 346 345 344 343 340 340 341 342 341 342 342 340 336 332 336 338 343 345 346 343 350 355 351 349 350 349 351 350 348 351 350 346 346 347 348 347 347 345 344 343 342 342 342 342 342 341 340 339 339 339 338 337 337 337 337 336 336
346 352 352 354 354 354 353 354 352 351 351 351 350 349 351 352 352 349 350 351 351 347 348 348 348 348 346 346 345 345 343 345 347 342 343 343 342 343 343 340 339 335 333 336 340 343 343 347 342 346 352 349 348 350 348 347 349 346 343 343 343 344 345 345 345 345 344 342 341 340 340 340 341 340 340 340 339 338 338 338 339 337 336 337 337
348 351 352 353 353 359 353 353 352 351 351 352 351 351 351 351 351 350 350 350 349 349 349 349 347 347 349 348 347 344 346 347 346 346 344 343 342 342 342 341 341 337 336 335 337 344 344 348 348 343 350 348 348 348 347 345 348 343 342 342 342 342 344 343 342 342 342 342 341 339 339 339 339 339 338 338 338 338 337 338 337 338 338 337 336
349 351 351 352 352 353 352 351 351 351 350 351 353 352 352 351 352 351 350 349 348 346 346 349 350 350 347 345 345 346 348 348 349 347 348 347 345 344 343 343 342 341 340 337 333 339 349 346 349 346 349 349 347 345 343 343 344 342 341 341 341 343 342 341 341 340 339 340 340 339 338 338 338 338 337 336 336 336 336 336 336 336 335 334 334
346 348 350 351 351 351 351 350 350 350 349 350 352 352 352 351 351 351 350 349 348 347 346 346 348 349 347 345 346 345 346 349 348 350 348 350 349 347 347 346 343 342 342 338 336 337 346 347 348 349 349 345 343 340 340 341 342 342 340 339 340 341 337 337 339 339 338 337 337 337 337 336 336 337 336 335 334 334 333 333 334 333 333 333 333
342 344 345 346 347 348 348 350 349 348 348 349 350 351 350 350 350 350 349 348 347 348 348 347 347 346 346 345 346 348 352 349 350 351 351 348 349 349 350 349 346 344 341 338 336 340 346 350 347 345 344 341 339 340 338 338 337 337 338 336 335 334 333 334 335 337 336 335 335 334 334 335 334 334 334 334 333 333 332 332 331 331 330 330 330
340 340 342 343 344 343 344 346 347 348 348 348 349 350 350 349 349 351 350 348 346 345 345 346 347 348 346 345 347 353 354 350 350 350 348 347 347 348 348 349 347 345 344 340 340 342 339 346 343 342 340 341 336 339 336 334 334 335 332 332 331 331 330 331 332 333 334 334 333 332 332 332 332 331 331 331 330 329 329 327 326 326 326 325 325
345 340 339 341 342 342 343 344 345 346 346 347 348 349 349 349 348 348 350 348 347 346 344 344 345 347 347 347 347 350 355 348 350 349 350 348 350 349 348 349 350 348 347 344 343 341 342 342 341 338 338 337 336 335 335 334 334 332 330 329 328 329 330 329 329 331 332 332 331 331 330 329 329 328 327 327 327 326 325 324 322 321 321 321 321
346 344 340 338 339 341 342 343 344 345 345 345 346 347 347 348 348 348 348 348 348 347 346 346 346 347 347 348 349 352 353 349 347 345 347 346 346 347 347 350 351 350 348 345 346 344 344 338 337 337 337 335 333 334 334 332 330 330 329 328 328 327 327 328 328 328 330 330 329 328 328 327 326 326 325 324 324 323 321 320 319 320 320 319 319
344 343 343 341 338 338 341 343 344 344 345 344 344 345 346 346 347 347 348 348 347 347 346 347 354 349 350 349 350 352 350 348 346 345 346 344 345 346 345 347 349 350 349 346 345 345 343 338 337 338 337 335 333 332 332 327 327 328 328 326 325 325 324 325 326 326 329 328 327 326 325 325 324 323 322 321 320 320 319 319 318 318 318 318 319
344 344 343 342 342 339 338 341 344 345 345 345 344 344 345 345 346 347 348 347 347 347 346 345 347 351 350 350 351 352 351 348 347 346 346 344 344 344 344 345 346 348 346 345 346 344 342 338 336 334 334 330 329 329 329 327 325 323 322 323 323 323 322 320 322 323 322 321 322 323 324 322 322 322 322 321 320 320 319 319 318 318 317 316 317
346 345 345 343 345 342 340 339 341 344 344 344 344 343 344 344 345 345 346 346 347 346 346 345 346 349 351 351 352 353 352 351 349 348 346 345 345 343 345 344 345 345 344 344 345 343 341 337 336 335 333 331 329 327 328 329 326 324 320 319 318 320 320 319 317 316 317 318 321 322 320 321 322 320 321 321 320 320 320 319 319 318 317 316 316
347 348 346 345 344 345 343 343 343 342 341 342 343 343 343 342 343 344 345 346 346 345 345 346 347 348 351 352 352 354 354 353 351 350 348 345 346 344 344 344 344 343 342 343 343 342 341 338 335 333 332 329 329 331 329 326 323 323 322 319 316 316 317 317 315 312 314 316 315 317 321 321 321 321 321 321 321 321 321 320 319 319 318 317 317
347 346 347 347 345 344 344 343 343 344 343 341 343 343 342 342 342 342 343 345 346 345 344 344 346 350 352 353 354 354 357 362 363 360 357 355 347 345 344 344 344 343 341 341 343 342 340 339 337 335 332 329 329 327 325 323 321 319 321 320 317 318 317 315 314 314 315 313 315 315 315 316 317 316 315 315 317 319 319 320 320 320 319 318 318
345 346 346 347 346 345 344 343 343 344 344 345 351 353 352 346 344 343 343 343 345 345 345 344 344 347 352 354 356 365 365 367 368 367 364 362 359 351 346 344 345 342 340 340 341 341 340 339 338 335 331 329 328 327 325 324 324 323 321 319 316 317 316 315 314 313 315 314 314 312 313 316 314 313 313 313 316 318 315 314 313 317 318 318 317
345 345 346 345 345 345 344 343 342 343 344 346 353 345 344 350 350 344 344 343 343 344 345 345 344 346 349 352 353 361 366 368 366 368 368 365 363 360 358 355 353 344 340 340 341 342 340 339 339 337 334 331 330 329 328 326 325 322 320 319 318 316 314 311 308 313 316 315 313 311 311 315 315 312 311 311 310 312 314 315 318 319 318 318 318
348 347 346 345 345 344 345 343 342 343 343 350 340 340 342 341 352 349 344 343 345 344 343 343 344 346 347 349 352 354 358 359 359 361 367 368 364 362 361 359 357 355 351 346 343 342 341 339 338 338 336 333 332 330 328 327 325 323 322 321 318 315 313 312 310 308 314 317 312 309 310 315 316 310 308 309 311 312 314 317 318 318 318 318 318
348 348 347 346 345 345 344 343 343 343 343 347 336 336 336 336 338 351 348 345 343 344 344 344 344 345 346 348 349 353 356 364 363 358 359 363 366 363 361 359 357 356 344 346 352 348 345 342 340 339 338 337 334 332 331 329 328 323 323 321 318 316 315 314 312 312 315 317 312 309 308 313 313 309 307 308 309 311 316 318 318 318 318 318 318
345 347 350 350 351 352 352 350 347 345 344 350 339 334 332 332 334 340 345 346 346 345 345 345 346 347 347 347 347 350 353 357 359 358 357 358 360 359 357 356 353 356 356 351 353 356 353 345 342 340 341 340 337 336 335 331 327 324 323 321 320 317 317 316 317 316 317 316 311 310 309 311 309 307 306 307 310 312 315 317 318 317 318 318 317
343 343 344 345 347 350 350 350 349 351 354 348 338 335 331 329 330 337 338 341 343 344 347 348 348 348 348 349 348 349 351 354 357 357 355 355 356 357 356 353 352 351 352 349 349 350 351 348 345 344 344 343 341 340 337 334 330 328 326 325 323 321 321 322 320 319 316 317 315 313 308 308 308 305 305 307 310 311 313 317 318 318 317 317 317
342 342 342 343 345 347 348 349 349 349 351 342 337 335 332 330 334 342 339 338 339 340 343 345 347 349 350 350 349 348 349 350 353 347 352 355 354 354 354 352 351 350 350 351 343 345 351 351 348 346 345 345 340 342 339 336 333 331 332 330 327 324 321 318 317 319 316 317 317 313 307 305 306 304 304 307 309 308 312 314 318 317 317 317 316
340 340 341 342 344 346 346 346 346 347 348 343 334 331 331 330 337 340 341 340 340 339 341 343 346 347 348 349 349 350 347 344 342 333 337 348 352 351 351 350 350 349 348 350 340 336 337 336 335 336 335 333 332 330 329 330 334 332 329 326 324 323 320 316 317 317 316 317 317 314 308 304 305 304 304 307 308 308 309 309 312 318 317 316 316
339 340 341 342 342 345 345 345 346 346 346 347 337 331 328 328 339 343 340 339 339 337 339 342 344 347 351 356 356 349 343 343 336 332 333 343 347 345 347 347 347 347 347 346 342 341 333 331 330 330 330 330 330 328 329 328 328 335 328 324 325 323 320 319 315 317 318 319 319 315 307 305 305 305 304 308 311 312 309 309 311 314 317 315 315
341 340 343 343 341 340 342 344 351 350 348 347 335 329 327 325 333 342 340 339 338 338 339 342 344 345 346 352 355 351 347 344 332 331 331 339 348 347 347 346 346 345 346 345 339 337 336 335 336 336 337 334 334 334 335 333 336 338 332 329 327 323 321 319 318 316 315 316 320 315 308 305 304 305 306 305 305 310 313 311 314 310 313 315 313
Wind_Speed
4 4 4 4 4 4 4 4 4 4 3 4 4 4 4 4 5 5 4 5 5 6 6 7 6 7 7 9 9 7 8 6 6 6 6 7 6 6 11 10 10 11 10 9 9 8 8 7 7 7 8 7 6 7 7 8 8 8 8 7 6 5 5 5 7 8 8 9 8 6 7 7 6 6 6 5 5 4 4 3 3 3 4 5 6
5 4 5 5 4 4 4 4 4 4 4 5 5 5 5 5 5 5 6 6 6 7 6 7 8 8 8 9 9 8 6 5 6 7 7 6 5 5 11 11 11 10 9 8 7 7 7 7 6 7 7 6 6 6 6 7 7 7 7 7 7 6 5 5 8 8 5 5 4 5 7 7 7 6 5 4 4 4 4 4 4 5 6 6 6
5 4 4 4 4 4 4 4 4 4 4 5 4 5 5 5 5 5 6 6 7 6 6 7 7 8 9 9 9 8 8 7 8 6 7 6 5 5 6 9 9 9 8 7 6 6 6 5 5 5 5 4 3 3 3 4 4 5 5 6 6 7 5 6 6 0 1 2 4 5 5 6 6 6 5 5 4 5 6 6 6 7 6 6 6
5 4 4 4 4 5 4 4 5 5 5 6 6 6 6 6 6 6 6 6 7 6 7 7 8 8 6 8 7 8 8 6 5 6 1 2 2 5 3 2 4 4 6 6 5 4 4 4 4 4 4 2 2 1 1 2 3 4 5 5 5 6 6 7 7 6 4 6 5 7 8 8 8 8 7 7 7 6 7 5 5 3 4 5 6
5 6 5 5 4 4 5 5 5 5 5 6 6 4 5 6 6 5 6 7 7 8 6 6 7 7 6 7 6 6 2 3 0 4 4 5 4 2 1 1 2 2 5 4 3 3 2 3 3 3 2 2 2 1 1 2 3 3 3 3 5 6 7 9 8 7 8 9 9 10 10 10 9 9 9 9 9 10 10 10 7 4 4 5 6
6 6 5 5 5 5 5 6 6 4 4 6 6 6 7 7 5 5 7 8 7 5 3 4 5 5 5 5 4 6 3 3 6 6 5 5 4 3 2 4 3 1 2 3 2 2 2 2 2 2 3 4 4 4 4 3 2 1 3 6 8 8 9 9 9 9 10 11 11 12 12 11 11 11 11 11 10 10 11 11 10 8 7 5 5
4 5 5 5 5 5 6 7 5 5 6 5 5 3 4 4 2 3 3 2 2 3 3 5 6 7 5 2 4 4 5 3 2 2 3 3 4 3 3 4 4 2 2 1 3 6 7 8 7 7 8 6 6 5 4 3 3 7 9 10 10 10 10 11 11 12 12 12 12 12 13 12 12 12 12 12 11 10 10 10 10 9 7 7 6
2 4 5 6 6 5 5 3 3 5 5 3 3 2 0 2 1 1 3 5 4 5 4 5 6 6 5 5 1 1 3 4 4 3 3 5 3 4 4 4 3 2 2 4 5 5 11 10 10 9 8 7 5 5 7 8 9 10 10 10 10 10 11 12 11 11 12 12 12 12 13 13 13 13 13 12 11 10 9 9 10 9 9 9 7
3 4 6 4 4 5 2 3 2 3 3 3 3 1 2 2 3 3 0 1 4 3 5 5 5 3 2 1 3 4 3 3 3 3 4 5 4 4 4 4 4 5 3 4 4 4 8 12 11 11 10 10 8 7 9 10 10 10 11 11 11 11 12 12 12 12 13 14 14 15 15 15 14 14 13 13 11 10 9 10 9 9 9 10 9
2 4 5 4 3 5 3 2 3 4 3 3 2 2 2 2 3 3 2 0 1 2 4 4 4 2 3 5 5 5 3 4 3 3 6 4 4 5 5 5 5 5 5 4 4 4 4 9 11 11 11 10 10 10 11 10 11 11 11 11 11 12 12 12 13 13 13 14 15 15 15 15 15 14 13 12 11 10 9 9 9 9 11 10 9
2 3 5 4 4 4 3 3 3 4 3 3 3 2 2 2 2 3 2 1 3 1 3 1 3 4 3 4 4 3 1 1 4 6 6 3 3 4 6 5 5 6 5 4 4 4 5 5 4 4 5 11 11 12 12 12 11 11 11 12 12 12 12 13 13 14 14 15 15 16 15 15 15 14 14 13 12 11 10 9 9 11 11 11 10
3 2 4 4 5 3 3 3 3 4 2 2 2 2 2 3 3 3 4 1 1 2 1 2 1 3 3 3 3 3 3 3 4 5 4 4 5 4 5 5 6 6 5 4 3 4 4 5 5 5 4 7 12 11 12 11 11 11 11 12 12 13 13 14 14 14 14 15 15 16 16 15 15 15 15 14 13 11 11 11 11 12 13 9 10
3 3 4 4 4 3 3 3 2 2 2 1 0 1 1 1 2 3 1 2 2 3 0 3 2 2 4 3 3 2 1 2 5 5 5 5 5 6 4 6 5 6 4 4 5 4 4 4 5 5 4 4 6 11 11 11 11 11 11 12 12 13 14 14 14 15 15 16 16 16 15 15 15 16 16 16 15 15 15 13 12 12 12 11 12
3 3 3 5 4 3 3 3 2 2 2 1 0 0 1 2 2 3 0 1 0 1 3 1 4 1 0 2 6 4 2 2 5 5 5 5 5 6 5 6 6 5 5 5 5 4 4 4 5 4 3 3 3 3 5 6 8 11 11 12 13 13 13 14 14 15 15 16 16 16 16 15 16 16 16 17 17 17 16 15 15 13 13 13 9
4 3 4 4 3 3 4 4 3 2 1 0 1 1 1 2 2 1 3 1 0 0 2 1 1 1 1 2 2 2 4 4 4 3 4 3 4 5 5 7 6 5 4 5 4 4 4 4 5 4 3 3 3 4 4 6 8 12 12 12 13 13 13 14 14 14 16 16 17 17 17 17 18 18 17 17 17 17 17 16 16 15 14 14 14
4 4 3 4 4 4 3 4 3 2 3 1 1 2 2 2 1 0 1 0 1 1 1 0 3 2 2 1 1 2 1 2 2 3 1 2 2 3 4 7 7 5 5 5 4 3 3 3 4 4 3 3 3 4 4 4 10 12 12 12 13 13 13 13 14 15 16 16 17 17 16 18 18 18 18 18 17 18 17 16 16 15 15 15 15
4 4 4 4 4 4 3 3 3 2 2 1 1 2 1 1 1 1 1 2 0 1 0 0 2 2 5 1 1 3 1 3 2 3 5 3 4 5 6 7 6 5 5 4 2 3 3 4 4 3 3 3 4 4 4 4 4 6 8 11 13 13 13 13 14 14 16 16 17 16 17 18 18 18 18 19 18 18 18 17 17 18 17 17 17
5 4 4 4 5 4 3 3 3 4 3 2 2 2 2 2 1 3 2 1 2 2 2 2 2 1 3 2 3 2 1 2 1 0 2 2 4 5 6 6 5 5 4 3 3 3 2 4 3 3 3 3 4 4 4 4 4 4 4 7 13 13 13 13 14 15 15 16 16 17 18 18 17 17 18 18 19 18 18 18 18 19 19 19 19
5 5 5 5 4 4 4 3 3 4 2 1 1 3 3 2 0 1 1 2 2 1 1 1 3 1 2 1 1 0 3 1 1 2 1 2 2 3 5 5 5 5 5 2 2 3 2 2 3 3 4 3 4 4 4 4 6 8 11 12 13 13 13 14 14 15 16 16 16 17 18 18 17 17 17 17 18 18 18 18 19 20 19 19 19
5 4 5 5 5 4 4 3 3 3 2 3 4 2 1 0 1 0 0 1 2 2 0 0 1 1 2 3 2 0 1 2 3 2 3 1 1 2 4 4 4 5 4 3 2 2 4 4 4 4 4 4 3 4 4 4 3 4 6 12 13 13 13 14 15 15 15 16 16 17 17 17 17 16 16 16 16 17 17 17 18 18 18 18 18
4 5 5 6 5 5 4 4 3 3 2 3 3 3 2 2 1 1 1 1 1 1 1 0 1 1 2 1 2 1 1 2 3 2 2 3 2 0 1 2 4 3 2 2 2 6 4 2 2 4 4 4 3 4 4 4 4 3 7 12 13 13 13 14 15 15 15 16 16 16 17 17 17 16 16 16 15 15 16 16 17 18 18 18 18
4 4 5 5 6 5 5 5 4 4 3 3 3 3 2 2 2 2 1 0 0 2 1 1 1 1 1 1 1 2 2 2 0 2 2 2 5 4 1 4 2 0 1 1 5 6 2 3 4 4 4 4 3 4 4 3 3 3 7 12 13 13 13 14 14 14 15 15 16 16 16 16 16 16 16 16 15 15 15 15 17 17 18 18 18
5 4 6 6 5 5 5 5 4 3 3 3 4 4 4 3 2 1 1 2 2 2 1 1 1 0 1 2 4 3 2 2 5 2 2 2 3 2 2 2 3 4 0 2 5 4 2 2 3 3 4 4 4 4 4 3 4 7 12 12 13 12 13 13 13 14 14 15 15 15 16 16 16 16 16 17 16 16 15 15 15 16 17 17 17
6 5 5 6 5 5 5 4 4 4 4 3 3 3 3 3 2 3 3 3 2 1 1 1 1 1 1 2 3 3 3 4 2 1 6 4 5 5 5 3 3 1 3 3 4 4 2 1 2 1 5 5 3 4 4 3 6 12 8 11 12 12 12 12 13 13 13 14 14 15 15 15 15 16 16 16 16 16 16 16 16 16 16 17 17
6 6 6 7 6 6 5 5 5 4 4 3 3 3 2 2 3 3 3 3 3 3 3 3 3 2 3 2 2 2 4 2 4 5 4 5 7 4 1 2 3 3 2 2 1 1 1 1 2 2 5 5 4 4 4 3 3 8 9 8 11 11 11 12 12 12 13 13 13 14 14 15 15 15 16 16 16 16 16 16 16 16 16 16 16
7 7 7 7 6 6 6 6 5 4 4 3 4 4 3 3 2 2 3 4 3 4 4 4 3 3 2 4 3 3 4 2 6 5 6 6 5 7 6 2 2 2 1 1 1 2 1 1 0 1 4 5 5 5 4 5 4 10 9 6 7 9 10 11 12 12 12 12 12 13 14 14 15 15 15 15 15 15 15 15 15 15 15 15 15
8 7 7 7 7 6 6 5 5 5 4 4 4 3 3 3 3 3 3 3 4 4 4 3 4 4 3 3 4 3 4 2 5 5 6 7 7 7 9 7 2 1 2 1 1 3 3 1 1 2 4 5 5 5 5 3 7 12 10 4 4 7 8 9 10 11 11 11 11 12 12 13 13 14 14 14 14 14 14 14 14 15 14 15 15
7 7 8 7 7 7 7 7 6 6 6 5 5 4 4 3 3 3 4 3 5 4 4 3 4 4 5 4 3 5 4 3 5 6 6 6 6 8 8 9 9 4 3 3 4 3 5 2 1 3 6 6 5 5 7 7 6 11 7 3 4 4 7 8 9 10 11 11 11 11 11 12 13 13 14 14 13 13 13 13 14 14 14 14 14
7 7 8 7 6 7 7 8 7 6 6 6 6 5 5 5 5 4 5 4 4 4 3 3 4 4 4 4 5 5 4 4 2 5 4 3 5 7 8 10 9 7 6 6 6 4 5 4 3 1 4 7 6 6 6 4 8 8 4 4 5 5 8 9 9 8 8 9 10 11 11 11 11 12 12 12 12 12 12 12 13 13 13 14 14
8 8 8 8 7 7 7 7 7 6 7 6 6 6 5 6 5 5 5 4 4 4 3 3 4 3 3 5 4 5 4 3 3 5 5 5 6 6 7 5 7 9 7 8 7 5 5 6 3 5 5 7 6 6 6 5 11 8 5 5 5 6 10 9 9 9 8 8 10 11 11 11 11 11 11 11 11 11 11 12 12 14 14 15 15
6 7 8 8 8 8 7 7 6 7 7 7 6 6 6 6 6 6 5 4 5 5 4 3 4 3 3 4 3 3 3 2 2 2 5 4 5 6 6 5 6 6 9 6 4 3 4 6 2 6 8 8 6 6 6 5 7 7 6 6 6 11 11 8 9 9 8 9 9 10 11 11 11 11 11 11 12 12 12 12 13 14 14 14 14
6 6 8 8 8 8 7 8 8 7 7 8 7 7 6 6 6 6 6 4 5 5 6 5 3 4 4 4 4 4 4 3 2 2 3 6 6 6 6 7 7 6 6 7 6 5 2 3 5 7 9 8 7 8 7 6 7 10 6 6 8 11 6 6 9 9 8 9 9 9 10 11 12 12 12 12 12 12 12 12 13 13 13 13 13
4 6 7 7 8 8 9 8 9 8 8 8 7 7 6 7 6 6 6 5 6 6 5 6 5 5 5 5 5 4 3 3 2 0 0 2 5 5 5 5 6 5 6 6 5 6 2 2 6 5 6 9 6 8 9 7 7 6 6 5 5 5 5 5 5 9 9 9 10 9 9 10 12 12 12 12 12 12 12 12 13 13 13 13 13
4 5 6 7 7 8 8 8 8 9 9 9 9 8 8 7 7 6 7 6 6 7 5 6 6 6 6 6 6 5 3 3 2 2 2 3 4 5 5 6 6 5 4 4 4 7 6 6 6 7 8 8 8 6 9 10 8 7 7 5 4 4 4 5 5 4 9 9 11 11 10 11 11 12 12 13 13 13 13 13 13 13 12 12 12
4 5 6 8 8 9 9 9 9 9 9 9 9 8 9 9 9 8 7 8 8 9 8 8 8 6 6 7 8 5 3 3 3 2 2 3 3 5 5 4 5 5 5 4 6 5 9 7 7 8 8 7 7 9 7 6 7 8 8 6 5 4 4 5 4 4 8 10 10 10 11 11 11 11 12 12 13 13 13 13 12 11 11 11 11
6 5 6 7 7 8 10 10 10 10 9 9 9 9 9 9 9 9 9 9 9 9 9 9 8 7 8 7 7 5 4 5 4 3 2 4 5 5 5 4 5 6 5 5 6 7 7 8 7 8 6 8 5 6 6 6 8 7 6 6 5 5 5 5 5 5 7 11 11 11 11 11 11 11 12 12 13 13 12 11 10 9 9 10 11
3 4 5 6 6 7 9 11 11 11 11 10 10 10 9 9 10 10 10 10 10 10 10 10 9 8 8 8 8 6 5 6 4 4 4 4 5 5 6 5 6 5 5 6 6 6 9 9 7 5 7 4 5 7 9 9 7 6 6 6 6 6 6 5 5 5 10 12 11 11 11 11 11 12 12 12 12 11 10 10 9 9 9 9 10
5 5 6 6 6 7 8 10 10 11 12 11 11 11 11 10 10 10 10 11 11 11 10 10 10 8 8 8 8 7 7 8 7 6 5 6 5 5 5 5 5 4 5 5 6 6 8 9 10 8 6 7 6 6 8 8 10 9 6 5 4 5 7 6 5 5 4 4 4 5 8 9 11 12 12 11 11 10 10 9 9 8 9 10 10
6 6 7 8 7 5 6 8 9 10 11 11 11 11 11 10 10 11 11 11 11 10 10 10 10 9 9 8 8 8 9 8 8 7 7 6 6 6 7 6 5 6 6 6 6 7 7 8 7 7 8 6 9 10 8 6 6 7 10 8 5 4 4 7 7 5 5 5 5 8 7 7 9 7 10 10 10 10 10 9 9 10 9 9 9
6 6 7 7 6 4 4 4 4 6 7 9 10 11 10 10 9 9 10 11 11 11 10 10 9 9 9 9 8 9 9 9 8 8 8 8 6 7 6 5 6 6 6 6 7 8 8 8 10 9 8 8 6 2 6 8 8 5 6 8 11 9 7 4 5 7 6 5 5 5 7 8 8 10 10 9 9 9 10 9 10 10 10 8 8
7 8 7 7 6 6 5 5 4 4 6 8 8 9 10 10 9 10 10 10 10 10 10 10 9 8 8 8 9 8 9 11 14 11 11 9 8 8 7 6 7 7 7 6 7 8 8 9 8 8 9 8 8 9 10 10 13 12 10 6 6 6 7 6 5 4 6 7 5 5 5 5 6 5 4 5 4 7 7 8 7 10 9 7 7
7 6 6 6 6 7 6 6 6 5 6 5 8 14 12 9 9 9 9 10 10 10 10 9 8 8 8 8 8 13 14 15 15 15 15 15 14 11 10 9 9 8 7 8 8 8 9 10 10 10 10 10 11 12 13 12 8 7 9 8 9 8 7 6 4 4 6 7 7 6 4 3 5 5 5 5 4 4 2 4 3 5 7 8 7
6 5 5 6 6 6 6 6 6 6 6 5 9 12 13 13 8 7 8 9 9 10 10 10 9 9 8 8 8 11 13 12 12 16 15 16 17 16 15 16 14 12 9 8 8 9 10 10 9 10 11 12 13 13 13 12 11 12 11 10 10 10 10 10 9 5 6 8 7 7 5 4 4 5 4 4 4 4 4 4 7 8 8 8 8
5 5 6 7 7 6 5 5 6 7 6 8 12 13 14 14 12 8 7 7 7 8 9 10 9 9 9 9 8 7 8 9 9 10 13 17 18 18 17 16 16 18 16 13 11 9 9 10 10 11 12 13 13 12 11 11 11 10 10 11 11 13 11 10 9 11 8 10 8 8 6 5 4 4 4 4 4 4 4 6 9 8 8 8 8
3 4 6 6 7 6 6 7 8 7 7 9 11 13 13 12 12 9 6 7 7 8 8 9 9 9 9 8 8 7 7 12 11 9 9 10 16 18 17 18 18 19 17 19 17 14 12 11 12 12 14 13 12 12 14 15 12 12 11 10 10 11 11 12 10 7 10 11 9 8 8 7 5 5 4 4 4 3 4 7 9 9 8 8 7
2 2 3 4 4 4 5 5 6 6 7 9 12 13 13 13 13 9 6 7 7 8 8 8 7 8 9 9 9 8 8 8 9 9 9 9 9 10 11 10 11 14 17 16 18 19 15 13 13 14 14 11 14 14 15 13 15 15 14 13 12 11 12 12 8 7 9 11 11 9 6 6 5 5 5 4 4 4 4 6 9 8 8 8 7
2 3 4 4 4 4 4 3 2 3 3 3 5 8 10 10 8 5 5 4 5 5 6 7 8 8 9 9 10 10 9 8 9 12 11 10 10 10 10 11 12 11 12 12 12 11 11 11 12 14 12 14 15 13 14 14 18 17 18 19 20 16 9 6 6 7 9 9 9 9 7 7 5 5 5 5 5 4 3 5 7 8 8 7 6
6 5 6 6 8 6 4 3 3 5 5 6 6 4 1 2 5 3 3 3 3 3 5 5 5 6 6 7 8 9 10 13 15 18 16 12 11 11 12 12 11 10 11 13 16 16 14 13 12 13 12 14 15 11 12 14 14 10 7 5 6 7 10 9 9 10 10 10 10 8 6 7 6 6 5 4 4 4 3 3 5 7 6 6 4
6 6 7 7 7 5 3 3 3 4 5 6 7 6 4 4 3 2 2 4 5 7 7 6 6 5 5 5 6 8 3 1 5 9 13 13 11 13 10 9 10 10 11 10 14 18 19 18 17 16 14 12 10 10 16 20 12 11 11 11 12 12 12 11 9 10 10 10 9 8 9 9 8 5 6 4 4 4 4 4 3 5 6 5 4
9 9 8 6 3 2 3 3 3 4 5 6 8 9 9 8 5 3 3 1 1 7 11 10 7 6 6 10 10 7 8 10 14 18 17 15 9 8 12 13 12 11 11 9 6 9 15 15 14 12 8 7 11 17 20 19 18 15 14 16 15 13 12 12 12 10 8 10 11 10 9 9 9 6 7 3 3 2 3 3 3 3 5 4 4
3 2 1 2 2 2 3 3 7 6 5 6 6 7 8 8 6 2 4 5 3 7 9 10 7 4 4 7 12 12 10 13 19 20 17 14 13 13 14 14 13 13 13 12 10 10 9 9 9 9 9 8 7 7 11 20 23 21 15 13 11 13 13 12 11 10 8 9 10 13 9 8 10 7 8 6 3 1 2 3 4 4 3 3 2
Wind_Direction
187 185 172 189 195 190 189 198 204 211 197 216 215 228 233 227 229 236 234 241 243 251 246 253 251 251 253 263 260 260 256 241 234 235 223 219 207 219 212 201 194 194 197 200 206 211 219 229 237 246 252 259 267 280 291 299 303 306 311 316 327 339 341 325 329 5 358 329 313 335 27 37 56 55 52 54 54 59 59 57 55 49 59 64 78
191 189 180 197 199 203 197 204 210 212 202 220 219 221 231 230 228 229 230 230 235 242 240 248 249 248 244 248 256 255 256 251 231 225 212 204 201 218 215 197 191 188 184 189 197 206 215 223 235 249 260 267 276 280 288 292 297 305 311 319 325 331 345 336 24 25 347 317 338 29 44 54 57 67 69 66 57 52 49 46 51 53 61 71 84
188 196 199 199 200 203 211 207 219 215 210 226 223 225 235 235 232 232 236 239 240 241 234 245 251 253 249 238 242 245 243 216 222 204 201 187 191 216 212 199 191 179 165 170 184 201 209 214 223 232 237 246 251 273 283 290 299 306 315 325 331 336 342 34 83 39 219 49 64 67 65 63 63 64 67 68 62 55 52 48 54 64 53 58 74
190 197 202 204 210 204 210 205 220 216 210 221 221 221 224 236 243 241 238 243 250 249 242 243 249 239 237 237 243 241 240 215 211 185 168 109 174 233 193 178 200 155 136 154 174 183 194 204 200 203 198 181 168 176 287 303 315 323 335 346 337 347 22 57 69 79 81 95 87 82 73 58 48 48 52 54 52 56 70 78 74 56 75 74 65
210 209 200 204 212 216 215 218 220 210 212 223 228 232 238 242 245 248 255 246 250 250 247 256 261 258 246 245 204 251 267 11 148 121 150 152 176 228 153 101 54 102 127 142 151 164 190 186 185 171 159 134 113 90 31 15 10 11 2 354 15 37 58 58 68 75 74 71 68 71 71 68 62 59 53 51 50 46 47 66 79 109 102 92 80
210 214 209 197 201 209 225 233 225 207 212 220 225 228 228 221 229 234 239 231 237 254 246 249 239 249 261 270 285 234 127 174 165 184 150 158 162 167 139 89 82 129 124 135 129 70 37 31 58 44 45 52 50 54 61 61 73 53 22 51 63 66 67 70 68 71 68 65 64 64 64 63 62 61 59 56 51 47 43 43 63 85 97 97 90
219 202 201 185 189 209 219 231 228 201 201 206 192 201 200 176 216 273 264 254 256 277 316 298 291 298 282 259 262 342 180 147 55 104 143 148 142 123 115 101 122 175 95 85 55 44 40 53 56 53 53 57 52 63 81 89 72 70 76 74 69 63 65 69 66 65 66 66 64 61 59 59 58 57 55 54 55 55 50 44 53 73 94 103 98
268 166 158 172 185 204 204 193 211 157 158 159 128 152 35 30 333 293 350 329 340 320 318 325 315 303 298 304 104 196 139 104 126 115 84 88 98 98 107 116 133 113 92 51 51 54 68 66 67 72 74 76 80 77 73 68 73 83 81 82 81 80 71 65 62 63 66 67 64 61 60 57 54 54 51 50 50 54 60 53 49 66 80 85 78
219 141 118 128 154 136 134 165 173 106 101 102 93 84 64 14 323 335 190 288 326 328 321 317 311 302 344 54 124 102 88 103 105 111 100 88 87 105 116 120 117 105 101 81 74 67 77 77 74 72 74 71 69 67 74 73 76 77 81 82 78 71 67 64 61 61 61 61 60 59 58 54 53 52 51 47 45 48 59 62 55 62 85 91 81
199 120 114 122 112 99 96 71 82 82 69 63 63 46 55 74 345 321 15 352 345 326 309 325 326 329 56 86 105 116 137 119 112 88 92 99 101 91 94 105 119 123 98 89 93 84 74 74 73 70 71 73 73 73 76 77 76 76 76 74 72 69 66 62 59 57 58 60 60 59 56 53 50 50 48 46 44 47 53 61 59 67 85 95 96
181 134 115 111 91 88 90 74 88 90 80 52 35 10 21 34 20 323 336 251 214 203 246 272 331 12 27 58 77 84 93 126 93 90 79 87 103 112 109 118 113 99 101 104 99 91 84 69 49 39 62 77 80 81 80 77 74 72 74 75 73 71 67 64 60 58 57 57 57 57 56 52 51 49 46 47 46 47 56 66 70 78 87 81 93
164 140 116 117 108 107 109 91 89 94 77 66 21 15 355 342 338 351 321 338 288 36 318 39 313 81 31 28 48 93 112 137 113 101 115 116 113 96 96 89 97 106 110 111 92 86 73 73 62 50 23 75 82 84 82 78 74 74 75 75 74 73 70 66 63 61 59 59 58 57 55 51 51 50 49 48 48 51 62 65 67 77 89 99 103
148 135 126 111 118 134 116 96 106 102 110 143 172 277 278 262 301 292 282 352 348 10 20 96 64 6 355 30 46 19 49 133 111 121 123 123 107 97 90 97 88 82 75 70 66 65 72 65 65 56 38 25 67 80 80 80 81 79 76 74 72 72 71 69 68 66 65 63 60 58 55 53 50 51 52 52 54 59 64 62 67 79 87 87 85
150 142 128 125 134 150 154 143 133 125 120 146 155 224 3 7 359 334 279 61 217 317 303 57 14 115 51 342 347 344 19 59 99 115 113 108 108 110 113 95 82 77 69 76 75 75 72 72 71 67 40 38 48 49 58 63 78 81 77 76 75 74 73 72 69 67 67 65 65 62 61 59 58 55 57 56 55 57 62 62 66 75 80 80 78
160 150 140 139 158 178 174 152 150 157 124 102 18 357 24 8 286 263 310 1 187 280 327 147 153 119 89 76 352 23 332 11 29 66 102 119 118 117 110 96 93 93 96 87 65 64 73 81 83 75 62 59 46 45 61 83 85 80 79 79 78 76 74 73 72 70 69 67 65 64 63 62 60 58 58 60 63 62 60 62 62 68 76 81 82
173 164 143 150 168 202 174 150 153 139 154 163 337 316 24 334 300 148 164 18 8 304 337 307 126 134 1 77 205 115 16 322 355 333 358 72 64 91 100 101 99 93 70 70 77 78 74 82 90 88 79 70 63 58 68 74 85 82 80 80 79 79 78 76 73 70 68 67 65 65 64 63 60 58 59 60 61 67 67 67 70 69 70 72 76
179 163 154 167 185 188 168 160 150 150 144 157 249 259 262 240 219 103 180 148 193 276 314 53 107 156 138 90 9 30 216 250 50 13 346 3 26 34 52 73 72 73 82 82 76 80 106 102 100 94 86 76 66 60 50 57 66 85 83 85 86 84 82 79 76 72 69 67 67 65 65 64 63 60 61 63 61 66 66 68 72 72 70 72 71
180 169 163 166 188 186 163 161 157 165 191 195 238 285 262 210 207 158 126 147 146 82 7 346 57 111 136 158 163 168 217 263 70 346 317 13 27 50 46 57 81 81 83 85 85 101 128 119 111 102 92 81 80 69 52 54 65 70 74 89 89 89 86 83 78 74 70 69 67 66 66 66 65 65 64 63 64 67 67 66 67 68 68 69 69
187 172 170 177 177 182 171 176 171 174 191 190 256 239 213 180 313 123 152 110 88 76 85 322 356 2 20 81 110 161 148 114 244 131 3 315 40 68 58 55 76 85 89 96 123 138 124 93 94 96 90 84 88 82 76 81 93 98 102 98 94 91 88 85 81 77 75 73 71 69 68 67 66 66 68 68 66 65 63 63 67 69 68 70 71
188 178 174 175 173 185 171 173 179 193 194 197 201 204 126 15 161 216 192 110 115 119 26 319 127 278 352 346 360 10 212 241 186 171 174 174 280 9 82 66 67 79 100 115 153 117 64 37 103 110 96 90 84 86 82 74 51 75 97 99 95 91 90 87 85 83 80 77 76 75 72 71 69 69 69 69 70 69 68 66 66 68 67 67 69
189 178 176 177 179 182 176 176 189 202 194 181 179 189 173 163 195 266 162 82 130 156 122 169 142 231 4 335 12 316 284 240 232 145 145 119 278 333 338 48 73 54 69 99 70 62 62 26 92 107 100 78 76 81 82 78 82 89 105 103 99 95 93 91 88 86 83 81 78 77 76 74 73 72 72 72 71 70 70 70 70 70 70 70 70
186 178 173 182 179 181 178 187 196 191 199 189 190 168 173 185 205 215 199 258 312 153 157 195 180 225 178 204 356 328 5 349 10 96 60 105 168 200 143 131 125 321 86 53 64 72 68 32 26 105 96 91 86 86 82 86 97 99 110 106 102 98 95 92 91 89 87 85 83 81 79 78 76 75 74 74 73 74 73 74 74 74 73 71 71
175 184 176 178 182 181 183 195 192 189 182 172 178 183 194 199 206 216 233 221 231 227 240 152 177 175 260 190 236 228 210 238 270 296 153 131 87 102 115 115 145 129 45 98 74 77 64 17 26 110 106 105 100 96 95 110 115 121 116 110 107 104 99 96 94 93 91 89 87 85 83 81 80 79 78 78 77 77 77 78 79 78 78 79 79
178 178 182 179 176 187 188 185 195 202 205 199 187 191 197 183 190 207 239 246 239 217 220 279 258 244 277 212 229 213 220 229 265 166 152 153 137 152 150 127 85 92 111 66 61 72 57 59 25 67 110 112 112 112 110 112 127 124 115 114 110 108 106 102 100 97 95 93 91 89 86 85 82 81 82 82 82 83 82 82 82 84 85 83 83
188 183 193 183 176 179 188 182 197 209 213 214 221 200 187 186 199 216 232 249 234 221 218 233 223 226 261 240 226 238 249 237 120 147 134 125 133 128 156 102 142 142 122 118 90 71 76 12 22 360 124 126 125 108 108 106 110 127 122 116 115 111 111 110 105 102 99 97 95 92 90 88 86 84 82 83 84 84 85 87 86 85 85 84 84
188 193 192 189 180 186 183 189 192 200 201 207 221 217 180 201 194 207 230 238 249 230 217 227 233 243 225 269 281 285 282 231 162 151 144 133 154 151 144 71 86 135 104 99 165 135 149 142 26 305 131 130 127 123 115 130 133 132 124 121 119 118 114 114 111 107 104 100 97 95 93 90 88 86 84 84 85 86 86 87 86 85 84 83 84
192 194 189 190 187 183 188 188 197 205 208 210 220 220 206 200 208 218 231 243 241 237 237 229 249 256 259 235 249 254 264 255 151 192 166 172 157 154 142 127 83 144 181 102 184 245 157 131 153 231 151 127 133 134 131 129 137 136 126 103 108 108 110 113 114 111 110 106 102 99 96 95 93 91 89 88 88 88 88 87 86 87 85 83 82
194 186 195 189 185 188 192 199 199 204 209 210 213 215 220 216 238 236 249 233 227 222 232 226 250 253 251 251 251 270 271 267 184 192 198 166 153 158 155 153 147 177 211 188 195 212 155 148 206 183 147 141 151 134 143 137 136 132 103 87 86 95 101 109 114 117 114 111 108 104 103 103 102 101 99 97 96 96 95 93 90 88 86 85 85
190 190 191 194 190 187 193 202 201 203 206 211 212 215 214 223 227 233 244 253 251 237 235 217 240 254 268 267 255 259 264 262 171 203 214 154 158 165 168 168 172 154 170 201 211 179 195 181 150 141 172 150 149 150 133 112 133 119 105 96 94 89 91 89 89 93 103 109 110 108 104 99 96 97 97 98 97 94 93 94 94 91 90 88 85
196 191 188 191 193 193 196 203 205 203 208 208 209 212 209 220 225 228 234 235 241 253 241 222 237 242 255 269 268 265 263 290 284 182 191 173 161 175 186 181 156 164 168 181 209 190 171 192 179 146 178 159 152 138 131 127 133 111 110 101 97 100 93 89 90 89 90 98 107 108 107 103 100 97 95 93 93 91 92 91 92 90 86 84 83
195 190 189 192 191 198 196 207 208 210 210 212 207 209 202 211 220 228 235 227 235 250 252 225 240 223 246 261 281 267 251 240 257 144 184 178 186 187 191 165 187 174 171 167 154 235 172 178 132 152 155 162 144 125 120 118 125 112 108 105 103 105 97 91 90 90 93 98 102 108 110 107 104 101 98 98 96 94 90 87 87 87 90 90 87
193 184 187 189 192 196 202 208 212 214 212 216 210 210 202 207 213 220 229 220 233 242 256 249 235 228 232 240 243 250 255 226 219 223 187 183 187 184 178 184 195 190 163 162 174 168 207 157 134 150 152 135 133 131 128 123 118 113 113 114 123 114 91 95 91 92 97 99 100 104 109 112 110 107 107 103 103 102 102 101 98 95 91 85 81
198 188 188 192 193 201 205 208 213 212 214 216 214 211 206 213 216 217 224 218 225 240 240 257 255 247 240 239 240 226 211 195 195 149 31 134 170 179 181 178 187 179 163 158 141 133 133 121 130 138 135 132 131 143 139 131 123 117 104 97 102 107 106 102 100 98 100 100 99 99 103 111 113 113 112 107 104 103 100 97 91 87 84 80 78
199 202 202 202 203 206 210 212 212 213 212 214 212 206 208 213 221 217 223 221 223 232 229 237 246 244 245 241 240 233 194 190 163 129 133 125 144 155 169 177 185 185 182 121 151 148 144 159 143 147 149 153 132 157 147 142 138 127 120 122 97 101 115 107 105 104 104 100 100 97 96 99 106 111 110 107 105 100 95 89 83 80 78 75 74
215 212 209 212 212 210 215 215 213 213 210 213 212 208 210 210 214 219 219 218 222 228 228 233 236 235 239 237 237 222 176 167 183 151 134 136 142 153 165 170 172 174 184 166 141 148 155 161 154 156 159 160 155 162 148 140 133 133 128 129 127 117 109 111 107 106 109 103 98 98 99 99 100 104 106 104 101 96 91 85 79 74 76 72 70
229 221 222 221 216 214 215 216 216 218 213 210 212 212 213 212 214 218 220 221 223 224 226 229 230 226 227 229 230 210 189 191 195 163 158 147 152 159 168 177 173 173 171 162 169 143 161 143 177 160 163 149 127 140 137 136 141 138 134 128 122 122 119 112 112 115 120 114 110 107 105 102 100 99 99 98 94 92 87 85 81 74 69 70 70
240 250 230 220 221 209 214 215 215 216 216 212 214 218 218 217 216 218 220 222 224 224 223 223 222 215 214 215 215 202 190 200 199 178 176 164 173 167 174 184 178 172 160 162 163 153 153 159 143 160 161 141 133 155 155 150 145 126 126 138 143 138 123 121 118 121 122 116 114 113 112 112 108 104 100 98 97 97 93 91 85 78 76 73 70
225 240 255 243 226 221 216 216 215 213 211 211 211 215 218 218 217 219 221 221 223 224 225 223 222 213 210 211 211 199 195 201 203 189 184 177 173 181 182 187 178 159 161 160 155 160 157 156 159 158 171 152 150 168 171 158 150 139 135 134 134 145 137 132 132 134 134 126 121 111 109 108 109 108 106 104 105 105 103 98 92 86 85 84 77
211 234 245 246 230 212 227 227 214 208 209 210 211 213 214 213 214 216 220 223 225 226 226 224 219 214 210 210 209 202 202 204 199 188 185 180 181 189 190 186 175 167 165 168 163 159 157 150 162 172 161 172 161 166 175 157 149 152 149 144 149 170 160 151 146 144 134 118 117 126 128 129 124 116 112 110 112 113 111 108 104 100 93 88 86
217 226 234 234 225 206 197 209 227 222 213 213 213 215 214 213 209 212 216 219 223 225 227 222 217 212 210 211 211 207 206 204 199 192 178 183 183 186 193 178 173 170 170 168 164 164 164 166 168 173 178 166 171 128 145 147 150 165 185 166 162 170 170 167 156 149 143 136 133 136 134 124 119 120 120 120 122 122 120 116 117 111 106 98 93
218 221 221 225 237 238 231 220 230 234 226 224 221 218 219 221 218 218 213 215 217 221 224 224 218 214 213 212 212 210 210 208 204 193 189 180 174 185 191 183 180 178 172 173 173 170 175 175 175 171 166 173 176 161 169 180 185 181 174 165 155 152 151 152 159 148 152 145 142 135 132 140 129 130 130 118 131 129 126 128 125 121 115 110 102
222 224 232 236 236 233 230 232 231 232 231 225 223 223 218 216 220 223 219 216 215 216 218 221 223 218 217 212 213 210 209 210 210 204 195 190 187 182 181 184 181 181 179 176 177 182 179 183 184 175 179 182 180 184 184 189 176 144 156 162 157 159 153 157 148 164 165 151 145 142 148 160 144 145 146 151 147 129 117 112 122 126 126 121 120
243 247 245 243 241 239 236 234 235 234 235 225 223 217 212 212 210 218 218 218 212 210 212 212 215 218 221 218 217 216 213 212 212 210 200 195 196 195 187 186 182 177 178 179 191 185 186 192 187 184 187 188 192 187 190 178 179 173 171 168 162 161 171 164 175 162 185 163 153 145 161 188 167 159 163 144 132 132 139 150 147 140 139 137 132
249 247 250 246 243 243 244 247 246 246 241 237 229 224 218 215 212 210 211 216 218 219 216 213 215 214 215 216 217 216 215 212 210 212 209 201 200 200 196 195 194 188 179 178 182 188 193 193 191 196 191 197 193 188 184 178 181 174 175 170 171 172 173 182 175 182 171 160 152 152 160 187 169 166 152 155 150 153 161 158 150 150 148 145 145
234 231 233 240 245 244 243 247 249 247 251 248 244 243 239 230 223 218 219 214 212 223 223 218 214 211 211 213 217 215 217 214 208 208 205 207 205 202 201 200 204 201 197 196 186 184 187 193 196 197 201 196 191 196 189 185 173 173 172 178 181 183 183 183 183 154 156 160 147 152 163 180 172 169 159 157 156 158 162 165 160 158 158 156 154
230 259 258 236 238 239 236 238 247 253 251 248 240 238 240 239 233 223 226 220 220 219 222 225 222 216 210 210 211 216 215 213 210 207 202 203 202 206 207 201 207 214 206 203 203 199 190 194 197 205 207 192 198 196 192 171 172 179 179 185 177 181 189 194 174 152 143 162 162 149 153 170 167 159 165 168 159 156 165 173 168 166 163 162 163
291 280 284 296 279 259 261 258 270 273 261 291 292 261 253 256 264 245 243 248 245 239 234 226 222 221 219 214 212 214 212 213 212 201 199 200 199 203 203 203 205 208 208 209 207 207 205 208 207 212 203 200 205 194 182 182 185 185 183 181 182 184 164 108 117 135 153 170 158 153 156 166 153 162 182 167 167 163 171 179 176 168 163 163 169
313 314 302 277 267 265 267 281 289 285 284 302 300 318 320 178 193 185 208 236 263 282 284 272 251 240 229 223 213 211 207 213 218 206 201 197 197 202 204 209 210 210 215 214 210 207 207 207 210 212 210 204 203 180 178 188 191 176 152 106 121 133 148 159 165 160 167 178 176 159 133 160 168 168 170 159 151 165 181 180 191 174 164 159 167
231 223 228 231 236 248 276 273 275 278 284 290 282 263 240 218 201 198 132 77 28 350 317 300 286 266 246 228 224 232 239 14 333 284 240 208 207 204 205 217 221 218 219 219 216 216 217 217 219 221 216 208 176 157 189 195 175 157 147 161 175 164 163 171 171 169 176 170 182 166 144 152 172 167 149 159 163 177 181 189 193 186 163 158 160
201 202 208 220 230 224 230 247 232 257 270 272 266 266 265 254 246 236 89 30 209 258 267 261 250 248 244 236 227 205 182 211 216 223 223 218 208 197 210 217 220 224 229 222 215 225 229 230 231 233 225 187 192 200 191 183 164 163 169 186 182 165 175 173 171 175 162 174 180 159 149 163 159 163 140 126 158 185 184 176 186 184 167 164 171
222 222 214 238 263 264 252 249 276 274 268 266 253 248 252 250 243 228 171 216 232 253 251 255 254 252 257 254 240 218 201 211 220 225 222 210 215 213 213 212 213 215 223 216 212 216 219 228 237 237 236 210 201 186 178 180 175 178 184 182 160 178 180 178 167 152 155 187 176 160 150 156 158 171 148 132 168 178 161 189 186 183 171 161 174